カタログに戻る

NAXING 1

運用中科学SSO
NORAD 28221·PAYLOAD·🇨🇳 China

打ち上げ Apr 18, 2004 から Xichang Satellite Launch Center

Loading…

次のパス (今後24時間)

TLE

最新Source: Space-Track

元期: Sep 14, 2026, 07:42 UTC

1 28221U 04012B   26257.32092309  .00001311  00000-0  94044-4 0  9993
2 28221  97.9990 288.4606 0011463 145.4338 214.7636 15.06180393220668

AllMySatでNAXING 1をリアルタイム追跡

Download on the App Store